Powrót do katalogu

DELTA 1 DEB

LostSSO
NORAD 40755·DEBRIS·🇺🇸 United States

Wystrzelony Jul 29, 1976 z Vandenberg Space Force Base

Loading…

Następne Przeloty (najbliższe 24 godziny)

TLE

NieaktualneSource: Space-Track

Epoka: Jan 26, 2026, 03:15 UTC

1 40755U 76077FY  26026.13596780  .00000106  00000-0  10596-2 0  9993
2 40755 102.0365   3.9085 0015245 116.7240 243.5388 12.45002349965365

Śledź DELTA 1 DEB w czasie rzeczywistym z AllMySat

Download on the App Store